CAPE
0 0 nan nan nan nan nan nan nan nan nan nan nan nan 2 1 nan nan nan nan nan nan nan nan nan nan nan 2 5 5 7 6 10 10 14 17 18 18 19 19 19 22 24 27 27 34 40 44 44 44 36 34 34 34 31 34 34 35 36 32 32 36 35 38 38 40 43 43 45 45 40 35 30 30 30 28 26 26 26 26 26 29 28 30 30 34
nan 0 nan nan nan nan 0 nan nan nan nan nan nan nan 2 0 nan nan nan nan nan nan nan nan nan nan nan 0 3 3 7 10 12 12 14 17 18 18 20 21 21 24 28 31 31 34 38 38 38 31 26 23 23 23 25 28 28 30 35 34 34 34 37 39 39 37 38 38 37 37 33 25 22 22 21 20 20 20 24 25 25 27 29 30 30 33
0 0 0 nan nan nan 0 nan nan nan nan nan 0 0 1 0 0 0 0 1 1 nan nan nan nan nan nan 0 6 6 9 12 16 16 17 18 18 18 22 25 25 27 30 31 31 34 31 27 27 20 14 14 13 13 17 20 20 28 31 31 31 32 33 35 35 32 33 32 32 32 28 23 19 19 20 22 24 24 27 25 25 27 29 31 31 35
nan nan 0 nan nan nan 0 0 nan nan nan nan nan nan nan 0 0 0 0 0 0 nan 0 0 0 0 0 0 6 6 10 14 19 19 21 23 24 24 26 28 28 28 31 31 31 26 23 17 17 12 8 7 8 8 11 15 15 21 24 28 28 31 31 30 30 29 28 29 27 27 26 25 24 24 26 26 29 29 30 30 30 29 30 34 34 35
nan 0 0 0 0 0 0 0 0 0 0 0 nan nan nan 0 1 1 1 nan nan 0 1 1 1 0 2 1 4 4 10 13 18 18 23 25 27 27 29 25 25 23 25 22 22 20 13 10 10 8 6 4 3 3 6 11 11 15 21 24 24 26 25 25 25 26 27 28 29 29 28 29 32 32 32 36 39 39 40 42 42 39 41 41 41 45
nan 0 0 0 0 0 0 0 0 0 nan nan nan nan nan nan 0 0 0 nan nan nan 1 1 1 nan nan nan 3 3 10 12 13 13 18 18 21 21 19 15 15 17 15 12 12 9 8 6 6 5 4 2 2 2 7 11 11 17 23 23 23 24 28 25 25 25 22 24 26 26 25 26 27 27 30 31 38 38 43 44 44 48 48 47 47 47
0 1 1 0 0 1 0 0 1 1 0 0 nan nan nan nan nan nan 0 0 0 0 nan nan nan nan nan nan 3 3 3 3 6 6 9 9 8 8 6 6 6 5 4 3 3 3 2 1 1 1 2 5 9 9 14 18 18 23 26 25 25 23 22 20 20 19 20 18 19 19 18 18 21 21 23 27 32 32 37 41 41 46 49 51 51 49
0 0 nan 0 0 0 1 2 2 2 nan nan 0 0 0 0 0 0 nan nan nan nan nan nan nan nan nan nan nan nan nan nan nan nan nan nan nan nan nan nan nan nan nan nan nan nan nan nan nan 0 2 3 5 5 11 15 15 11 8 5 5 2 3 4 4 6 7 7 10 10 12 14 16 16 19 20 21 21 26 29 29 38 42 45 45 49
nan 0 1 nan nan 0 0 1 nan nan nan nan nan nan nan nan nan nan nan nan nan nan nan nan nan nan nan nan nan nan nan nan nan nan nan nan nan nan nan nan nan nan nan nan nan nan nan nan nan nan nan 0 2 2 4 5 5 4 4 3 3 2 2 4 4 6 6 8 9 9 10 12 14 14 15 17 19 19 21 24 24 31 37 42 42 44
nan nan 0 nan nan nan nan 0 nan nan nan nan nan nan nan nan nan nan nan nan nan nan nan nan nan nan nan nan nan nan nan nan nan nan nan nan nan nan nan nan nan nan nan nan nan nan nan nan nan nan nan 0 1 1 1 0 0 nan nan 0 0 1 1 2 2 4 4 4 5 5 6 8 10 10 13 14 18 18 19 21 21 24 28 35 35 40
nan nan nan nan nan nan nan nan nan nan nan nan nan nan nan nan nan nan nan nan nan nan nan nan nan nan nan nan nan nan nan nan nan nan nan nan nan nan nan nan nan nan nan nan nan nan nan nan nan nan nan 1 0 0 nan nan nan nan nan nan nan nan nan 0 0 0 1 1 3 3 4 6 8 8 11 14 15 15 18 19 19 19 23 26 26 33
nan nan nan nan nan nan nan nan nan nan nan nan nan nan nan nan nan nan nan nan nan nan nan nan nan nan nan nan nan nan nan nan nan nan nan nan nan nan nan nan nan nan nan nan nan nan nan nan nan nan nan nan nan nan nan nan nan nan nan nan nan nan nan nan nan nan nan nan 0 0 3 6 8 8 12 14 16 16 18 17 17 19 19 24 24 29
nan nan nan nan nan nan nan nan nan nan nan nan nan nan nan nan nan nan nan nan nan nan nan nan nan nan nan nan nan nan nan nan nan nan nan nan nan nan nan nan nan nan nan nan nan nan nan nan nan nan nan nan nan nan nan nan nan nan nan nan nan nan nan nan nan nan nan 0 2 2 4 9 12 12 15 17 18 18 19 18 18 19 21 24 24 28
nan nan nan nan nan nan nan nan nan nan nan nan nan nan nan nan nan nan nan nan nan nan nan nan nan nan nan nan nan nan nan nan nan nan nan nan nan nan nan nan nan nan nan nan nan nan nan nan nan nan nan nan nan nan nan nan nan nan nan nan nan nan nan nan nan 0 0 2 5 5 10 13 16 16 19 20 19 19 18 18 18 19 20 23 23 24
nan nan nan nan nan nan nan nan nan nan nan nan nan nan nan nan nan nan nan nan nan nan nan nan nan nan nan nan nan nan nan nan nan nan nan nan nan nan nan nan nan nan nan nan nan nan nan nan nan nan nan nan nan nan nan nan nan nan nan 0 0 0 1 2 2 3 5 7 10 10 13 15 18 18 19 21 22 22 17 17 17 17 19 21 21 22
nan nan nan nan nan nan nan nan nan nan nan nan nan nan nan nan nan nan nan nan nan nan nan nan nan nan nan nan nan nan nan nan nan nan nan nan nan nan nan nan nan nan nan nan nan nan nan nan nan nan nan nan nan nan nan nan nan 0 1 2 2 4 4 5 5 8 9 12 13 13 14 15 16 16 18 20 20 20 17 17 17 17 18 19 19 21
nan nan nan nan nan nan nan nan nan nan nan nan nan nan nan nan nan nan nan nan nan nan nan nan nan nan nan nan nan nan nan nan nan nan nan nan nan nan nan nan nan nan nan nan nan nan nan nan nan nan nan nan nan nan nan nan nan 1 2 3 3 4 5 6 6 9 11 13 14 14 15 15 16 16 17 18 17 17 16 16 16 16 17 17 17 17
nan nan nan nan nan nan nan nan nan nan nan nan nan nan nan nan nan nan nan nan nan nan nan nan nan nan nan nan nan nan nan nan nan nan nan nan nan nan nan nan nan nan nan nan nan nan nan nan nan nan nan nan nan nan nan 0 0 2 2 3 3 3 6 7 7 9 11 13 15 15 15 14 15 15 14 14 14 14 15 15 15 15 16 15 15 16
nan nan nan nan nan nan nan nan nan nan nan nan nan nan nan nan nan nan nan nan nan nan nan nan nan nan nan nan nan nan nan nan nan nan nan nan nan nan nan nan nan nan nan nan nan nan nan nan nan nan nan nan nan nan nan 0 0 1 2 3 3 4 4 7 7 9 10 12 13 13 13 15 13 13 13 12 12 12 12 13 13 13 14 14 14 16
nan nan nan nan nan nan nan nan nan nan nan nan nan nan nan nan nan nan nan nan nan nan nan nan nan nan nan nan nan nan nan nan nan nan nan nan nan nan nan nan nan nan nan nan nan nan nan nan nan nan nan nan nan nan nan nan nan 0 2 3 3 4 5 7 7 8 10 11 13 13 13 13 13 13 13 12 11 11 11 13 13 13 12 14 14 15
nan nan nan nan nan nan nan nan nan nan nan nan nan nan nan nan nan nan nan nan nan nan nan nan nan nan nan nan nan nan nan nan nan nan nan nan nan nan nan nan nan nan nan nan nan nan nan nan nan nan nan nan nan nan nan nan nan 1 2 2 2 3 5 7 7 9 10 10 11 11 11 12 11 11 12 12 10 10 12 11 11 12 13 14 14 16
nan nan nan nan nan nan nan nan nan nan nan nan nan nan nan nan nan nan nan nan nan nan nan nan nan nan nan nan nan nan nan nan nan nan nan nan nan nan nan nan nan nan nan nan nan nan nan nan nan nan nan nan nan nan nan 0 0 1 1 2 2 3 5 6 6 8 9 10 10 10 10 11 11 11 10 12 10 10 10 11 11 13 13 14 14 14
nan nan nan nan nan nan nan nan nan nan nan nan nan nan nan nan nan nan nan nan nan nan nan nan nan nan nan nan nan nan nan nan nan nan nan nan nan nan nan nan nan nan nan nan nan nan nan nan nan nan nan nan nan nan nan 0 0 1 1 2 2 3 4 6 6 7 8 10 10 10 10 11 11 11 12 11 10 10 11 11 11 12 12 12 12 12
nan nan nan nan nan nan nan nan nan nan nan nan nan nan nan nan nan nan nan nan nan nan nan nan nan nan nan nan nan nan nan nan nan nan nan nan nan nan nan nan nan nan nan nan nan nan nan nan nan nan nan nan nan nan 0 1 1 1 1 2 2 3 5 6 6 7 9 9 11 11 10 11 11 11 11 11 10 10 11 10 10 10 10 10 10 10
nan nan nan nan nan nan nan nan nan nan nan nan nan nan nan nan nan nan nan nan nan nan nan nan nan nan nan nan nan nan nan nan nan nan nan nan nan nan nan nan nan nan nan nan nan nan nan nan nan nan nan nan nan nan 0 2 2 3 3 3 3 4 5 7 7 8 9 10 11 11 11 10 10 10 10 10 9 9 10 9 9 9 9 9 9 9
nan nan nan nan nan nan 1 10 15 15 nan nan nan nan nan nan nan nan nan nan nan nan nan nan nan 0 nan nan nan nan nan nan nan nan nan nan nan nan nan nan nan nan nan nan nan nan nan nan nan nan nan nan nan nan nan 1 1 3 3 3 3 6 7 8 8 8 8 8 8 8 8 8 9 9 9 9 8 8 8 9 9 10 10 9 9 9
10 5 12 16 16 17 15 10 10 10 15 4 nan nan nan nan nan nan nan nan nan nan nan nan nan nan nan nan nan nan nan nan nan nan nan nan nan nan nan nan nan nan nan nan nan nan nan nan nan nan nan nan nan nan nan nan nan 2 4 4 4 5 4 4 4 3 4 4 3 3 5 6 6 6 7 8 10 10 11 10 10 10 9 9 9 10
14 13 13 15 15 12 9 7 7 7 9 11 11 11 1 nan nan nan nan nan nan nan nan nan nan nan nan nan nan nan nan nan nan nan nan nan nan nan nan nan nan nan nan nan nan nan nan nan nan nan nan nan nan nan nan nan nan nan nan 0 0 0 0 0 0 0 0 0 1 1 2 3 5 5 7 9 10 10 12 11 11 12 12 8 8 0
5 8 8 8 8 3 1 nan nan nan 2 3 6 6 nan nan nan nan nan nan nan nan nan nan nan nan nan nan nan nan nan nan nan nan nan nan nan nan nan nan nan nan nan nan nan nan nan nan nan nan nan nan nan nan nan nan nan nan nan nan nan nan nan nan nan nan nan nan 0 0 1 3 6 6 8 9 11 11 12 13 13 13 10 5 5 nan
nan nan nan nan nan nan nan nan nan nan nan 0 0 0 nan nan nan nan nan nan nan nan nan nan nan nan nan nan nan nan nan nan nan nan nan nan nan nan nan nan nan nan nan nan nan nan nan nan nan nan nan nan nan nan nan nan nan nan nan nan nan nan nan nan nan nan nan nan 0 0 2 4 6 6 8 9 11 11 12 13 13 10 4 1 1 1
nan nan nan nan nan nan nan nan nan nan nan nan nan nan nan nan nan nan nan nan nan nan nan nan nan nan nan nan nan nan nan nan nan nan nan nan nan nan nan nan nan nan nan nan nan nan nan nan nan nan nan nan nan nan nan nan nan nan nan nan nan nan nan nan nan nan nan nan 0 0 1 3 5 5 6 8 9 9 12 13 13 10 2 0 0 nan
nan nan nan nan nan nan nan nan nan nan nan nan nan nan nan nan nan nan nan nan nan nan nan nan nan nan nan nan nan nan nan nan nan nan nan nan nan nan nan nan nan nan nan nan nan nan nan nan nan nan nan nan nan nan nan nan nan nan nan nan nan nan nan nan nan nan nan nan nan nan 0 0 1 1 1 3 6 6 8 9 9 10 4 0 0 nan
nan nan nan nan nan nan nan nan nan nan nan nan nan nan nan nan 0 0 nan nan nan nan nan nan nan nan nan nan nan nan nan nan 0 0 nan nan nan nan nan nan nan nan nan nan nan nan nan nan nan nan nan nan nan nan nan nan nan nan nan nan nan nan nan nan nan nan nan nan nan nan nan nan nan nan nan 0 2 2 4 6 6 9 9 0 0 0
nan nan nan nan nan nan nan nan nan nan nan nan nan nan nan nan nan nan nan nan nan nan nan nan nan nan nan nan nan nan nan nan 5 5 1 nan nan nan nan nan nan nan nan nan nan nan nan nan nan nan nan nan nan nan nan nan nan nan nan nan nan nan nan nan nan nan nan nan nan nan nan nan nan nan nan nan nan nan 0 2 2 7 11 6 6 3
nan nan nan nan nan nan nan nan nan nan nan nan nan nan nan nan nan nan nan nan nan nan nan nan nan nan nan nan nan nan 0 nan nan nan 2 nan nan nan nan nan nan nan nan nan nan nan nan nan nan 0 nan nan nan nan nan nan nan nan nan nan nan nan nan nan nan nan nan nan nan nan nan nan nan nan nan nan nan nan 1 3 3 8 13 19 19 13
nan nan nan nan nan nan nan nan nan nan nan nan nan nan nan nan nan nan nan nan nan nan nan nan nan nan nan nan nan nan nan nan nan nan nan nan nan nan nan nan nan nan nan nan nan nan nan nan nan 1 1 nan nan nan nan nan nan nan nan nan nan nan nan nan nan nan nan nan nan nan nan nan nan nan nan nan 0 0 3 7 7 10 13 18 18 19
nan nan nan nan nan nan nan nan nan nan nan nan nan nan nan nan nan nan nan nan nan nan nan nan nan nan nan nan nan nan nan nan nan nan nan nan nan nan nan nan nan nan nan nan nan nan nan nan nan 0 nan nan nan nan nan nan nan nan nan nan nan nan nan nan nan nan nan nan nan nan nan nan nan nan nan nan 0 0 4 7 7 8 10 13 13 16
nan nan nan nan nan nan nan nan nan nan nan nan nan nan nan nan nan nan nan nan nan nan nan nan nan nan nan nan nan nan nan nan nan nan nan nan nan nan nan nan nan nan nan nan nan nan nan nan nan nan nan nan nan nan nan nan nan nan nan nan nan nan nan nan nan nan nan nan nan nan nan nan nan nan nan nan nan nan nan nan nan nan 3 4 4 10
nan nan nan nan nan nan nan nan nan nan nan nan nan nan nan nan nan nan nan nan nan nan nan nan nan nan nan nan nan nan nan nan nan nan nan nan nan nan nan nan nan nan nan nan nan nan nan nan nan nan nan nan nan nan nan nan nan nan nan nan nan nan nan nan nan nan nan nan nan nan nan nan nan nan nan nan nan nan nan nan nan nan nan nan nan nan
nan nan nan nan nan nan nan nan nan nan nan nan nan nan nan nan nan nan nan nan nan nan nan nan nan nan nan nan nan nan nan nan nan nan nan nan nan nan nan nan nan nan nan nan nan nan nan nan nan nan nan nan nan nan nan nan nan nan 1 nan nan nan nan nan nan nan nan nan nan nan nan nan nan nan nan nan nan nan nan nan nan nan nan nan nan nan
nan nan nan nan nan nan nan nan nan nan nan nan nan nan nan nan nan nan nan nan nan nan nan nan nan nan nan nan nan nan nan nan nan nan nan nan nan nan nan nan nan nan nan nan nan nan nan nan nan nan nan nan nan nan 0 nan nan 1 3 nan nan nan nan nan nan nan nan nan nan nan nan nan nan nan nan nan nan nan nan nan nan nan nan nan nan nan
nan nan nan nan nan nan nan nan nan nan nan nan nan nan nan nan nan nan nan nan nan nan nan nan nan nan nan nan nan nan nan nan nan nan nan nan nan nan nan nan nan nan nan nan nan nan nan 0 0 nan nan nan nan nan nan nan nan 0 1 nan nan nan nan nan nan nan nan nan nan nan nan nan nan nan nan nan nan nan nan nan nan nan nan nan nan nan
nan nan nan nan nan nan nan nan nan nan nan nan nan nan nan nan nan nan nan nan nan nan nan nan nan nan nan nan nan nan nan nan nan nan nan nan nan nan nan nan nan nan nan nan nan nan nan nan nan nan nan nan nan nan nan nan nan nan nan nan nan 0 nan nan nan nan nan nan nan nan nan nan nan nan nan nan nan nan nan nan nan 1 4 nan nan nan
nan nan nan nan nan nan nan nan nan nan nan nan nan nan nan nan nan nan nan nan nan nan nan nan nan nan nan nan nan nan nan nan nan nan nan nan nan nan nan nan nan nan nan nan nan nan nan nan nan nan nan nan nan nan nan nan nan nan nan nan nan nan nan nan nan nan nan nan nan nan nan nan nan nan nan nan nan nan nan nan nan nan nan nan nan nan
nan nan nan nan nan nan nan nan 1 1 nan nan nan nan nan nan nan nan nan nan nan nan nan nan nan nan nan nan nan nan nan nan nan nan nan nan 3 3 nan nan nan nan nan nan nan nan nan nan nan nan nan nan nan nan nan nan nan nan nan 1 1 0 nan nan nan nan nan nan nan nan nan nan nan nan nan nan nan nan nan nan nan nan nan nan nan nan
nan nan nan nan nan nan nan nan 0 0 nan nan nan nan nan nan nan nan nan nan nan nan nan nan nan nan nan nan nan nan nan nan nan nan nan nan nan nan nan nan nan nan nan nan nan nan nan nan nan nan nan nan nan nan nan nan nan nan nan 0 0 nan nan nan nan nan nan nan nan nan nan nan nan nan nan nan nan nan nan nan nan nan nan nan nan nan
nan nan nan nan nan nan nan nan nan nan nan nan nan nan nan nan nan nan nan nan nan nan nan nan nan nan nan nan nan nan nan nan nan nan nan nan nan nan nan nan nan nan nan nan nan nan nan nan nan nan nan nan nan nan nan nan nan nan nan nan nan nan nan nan nan nan nan nan nan nan nan nan nan nan nan nan nan nan nan nan nan nan nan nan nan nan
nan nan nan nan nan nan nan nan nan nan nan nan nan nan nan nan nan nan nan nan nan nan nan nan nan nan nan nan nan nan nan nan nan nan nan nan nan nan nan nan nan nan nan nan nan nan nan nan nan nan nan nan nan nan nan nan nan nan nan nan nan nan nan nan nan nan nan nan nan nan nan nan nan nan nan nan nan nan nan nan nan nan nan nan nan nan
nan nan nan nan nan nan nan nan nan nan nan nan nan nan nan nan 3 3 nan nan nan nan nan nan nan nan nan nan nan nan nan nan nan nan nan nan nan nan nan nan nan nan nan nan nan nan nan nan nan nan nan nan nan nan nan nan nan nan nan nan nan nan nan nan nan nan nan nan nan nan nan nan nan nan nan nan nan nan nan nan nan nan nan nan nan nan
nan nan nan nan nan nan nan nan nan nan nan nan nan nan nan nan nan nan nan nan nan nan nan nan nan nan nan nan nan nan nan nan nan nan nan nan nan nan nan nan nan nan nan nan nan nan nan nan nan nan nan nan nan nan nan nan nan nan nan nan nan nan nan nan nan nan nan nan nan nan nan nan nan nan nan nan nan nan nan nan nan nan nan nan nan nan
nan nan nan nan nan nan nan nan nan nan nan nan nan nan nan nan nan nan nan nan nan nan nan nan nan nan nan nan nan nan nan nan nan nan nan nan nan nan nan nan nan nan nan nan nan nan nan nan nan nan nan 4 nan nan nan nan nan nan nan nan nan nan nan nan nan nan nan nan nan nan nan nan nan nan nan nan nan nan nan nan nan nan nan nan nan nan
CIN
-0 -0 nan nan nan nan nan nan nan nan nan nan nan nan -0 -0 nan nan nan nan nan nan nan nan nan nan nan -0 -0 -0 -0 -0 -0 -0 -0 -0 -0 -0 -0 -0 -0 -0 -0 -0 -0 -0 -0 -0 -0 -0 -0 -0 -0 -0 -0 -0 -0 -0 -0 -0 -0 -0 -0 -0 -0 -0 -0 -0 -0 -0 -0 -0 -0 -0 -0 -0 -0 -0 -0 -0 -0 -0 -0 -0 -0 -0
nan -0 nan nan nan nan -0 nan nan nan nan nan nan nan -0 -0 nan nan nan nan nan nan nan nan nan nan nan -0 -0 -0 -0 -0 -0 -0 -0 -0 -0 -0 -0 -0 -0 -0 -0 -0 -0 -0 -0 -0 -0 -0 -0 -0 -0 -0 -0 -0 -0 -0 -0 -0 -0 -0 -0 -0 -0 -0 -0 -0 -0 -0 -0 -0 -0 -0 -0 -0 -0 -0 -0 -0 -0 -0 -0 -0 -0 -0
-0 -0 -0 nan nan nan -0 nan nan nan nan nan -0 -0 -0 -0 -0 -0 -0 -0 -0 nan nan nan nan nan nan -0 -0 -0 -0 -0 -0 -0 -0 -0 -0 -0 -0 -0 -0 -0 -0 -0 -0 -0 -0 -0 -0 -0 -0 -0 -0 -0 -0 -0 -0 -0 -0 -0 -0 -0 -0 -0 -0 -0 -0 -0 -0 -0 -0 -0 -0 -0 -0 -0 -0 -0 -0 -0 -0 -0 -0 -0 -0 -0
nan nan -0 nan nan nan -0 -0 nan nan nan nan nan nan nan -0 -0 -0 -0 -0 -0 nan -0 -0 -0 -0 -0 -0 -0 -0 -0 -0 -0 -0 -0 -0 -0 -0 -0 -0 -0 -0 -0 -0 -0 -0 -0 -0 -0 -0 -0 -0 -0 -0 -0 -0 -0 -0 -0 -0 -0 -0 -0 -0 -0 -0 -0 -0 -0 -0 -0 -0 -0 -0 -0 -0 -0 -0 -0 -0 -0 -0 -0 -0 -0 -0
nan -0 -0 -0 -0 -0 -0 -0 -0 -0 -0 -0 nan nan nan -0 -0 -0 -0 nan nan -0 -0 -0 -0 -0 -0 -0 -0 -0 -0 -0 -0 -0 -0 -0 -0 -0 -0 -0 -0 -0 -0 -0 -0 -0 -0 -0 -0 -0 -0 -0 -0 -0 -0 -0 -0 -0 -0 -0 -0 -0 -0 -0 -0 -0 -0 -0 -0 -0 -0 -0 -0 -0 -0 -0 -0 -0 -0 -0 -0 -0 -0 -0 -0 -0
nan -0 -0 -0 -0 -0 -0 -0 -0 -0 nan nan nan nan nan nan -0 -0 -0 nan nan nan -0 -0 -0 nan nan nan -0 -0 -0 -0 -0 -0 -0 -0 -0 -0 -0 -0 -0 -0 -0 -0 -0 -0 -0 -0 -0 -0 -0 -0 -0 -0 -0 -0 -0 -0 -0 -0 -0 -0 -0 -0 -0 -0 -0 -0 -0 -0 -0 -0 -0 -0 -0 -0 -0 -0 -0 -0 -0 -0 -0 -0 -0 -0
-0 -0 -0 -0 -0 -0 -0 -0 -0 -0 -0 -0 nan nan nan nan nan nan -0 -0 -0 -0 nan nan nan nan nan nan -0 -0 -0 -0 -0 -0 -0 -0 -0 -0 -0 -0 -0 -0 -0 -0 -0 -0 -0 -0 -0 -0 -0 -0 -0 -0 -0 -0 -0 -0 -0 -0 -0 -0 -0 -0 -0 -0 -0 -0 -0 -0 -0 -0 -0 -0 -0 -0 -0 -0 -0 -0 -0 -0 -0 -0 -0 -0
-0 -0 nan -0 -0 -0 -0 -0 -0 -0 nan nan -0 -0 -0 -0 -0 -0 nan nan nan nan nan nan nan nan nan nan nan nan nan nan nan nan nan nan nan nan nan nan nan nan nan nan nan nan nan nan nan -0 -0 -0 -0 -0 -0 -0 -0 -0 -0 -0 -0 -0 -0 -0 -0 -0 -0 -0 -0 -0 -0 -0 -0 -0 -0 -0 -0 -0 -0 -0 -0 -0 -0 -0 -0 -0
nan -0 -0 nan nan -0 -0 -0 nan nan nan nan nan nan nan nan nan nan nan nan nan nan nan nan nan nan nan nan nan nan nan nan nan nan nan nan nan nan nan nan nan nan nan nan nan nan nan nan nan nan nan -0 -0 -0 -0 -0 -0 -1 -1 -0 -0 -0 -0 -0 -0 -0 -0 -0 -0 -0 -0 -0 -0 -0 -0 -0 -0 -0 -0 -0 -0 -0 -0 -0 -0 -0
nan nan -0 nan nan nan nan -0 nan nan nan nan nan nan nan nan nan nan nan nan nan nan nan nan nan nan nan nan nan nan nan nan nan nan nan nan nan nan nan nan nan nan nan nan nan nan nan nan nan nan nan -0 -0 -0 -0 -0 -0 nan nan -0 -0 -0 -0 -0 -0 -0 -0 -0 -0 -0 -0 -0 -0 -0 -0 -0 -0 -0 -0 -0 -0 -0 -0 -0 -0 -0
nan nan nan nan nan nan nan nan nan nan nan nan nan nan nan nan nan nan nan nan nan nan nan nan nan nan nan nan nan nan nan nan nan nan nan nan nan nan nan nan nan nan nan nan nan nan nan nan nan nan nan -0 -0 -0 nan nan nan nan nan nan nan nan nan -0 -0 -0 -0 -0 -0 -0 -0 -0 -0 -0 -0 -0 -0 -0 -0 -0 -0 -0 -0 -0 -0 -0
nan nan nan nan nan nan nan nan nan nan nan nan nan nan nan nan nan nan nan nan nan nan nan nan nan nan nan nan nan nan nan nan nan nan nan nan nan nan nan nan nan nan nan nan nan nan nan nan nan nan nan nan nan nan nan nan nan nan nan nan nan nan nan nan nan nan nan nan -0 -0 -0 -0 -0 -0 -0 -0 -0 -0 -0 -0 -0 -0 -0 -0 -0 -0
nan nan nan nan nan nan nan nan nan nan nan nan nan nan nan nan nan nan nan nan nan nan nan nan nan nan nan nan nan nan nan nan nan nan nan nan nan nan nan nan nan nan nan nan nan nan nan nan nan nan nan nan nan nan nan nan nan nan nan nan nan nan nan nan nan nan nan -0 -0 -0 -0 -0 -0 -0 -0 -0 -0 -0 -0 -0 -0 -0 -0 -0 -0 -0
nan nan nan nan nan nan nan nan nan nan nan nan nan nan nan nan nan nan nan nan nan nan nan nan nan nan nan nan nan nan nan nan nan nan nan nan nan nan nan nan nan nan nan nan nan nan nan nan nan nan nan nan nan nan nan nan nan nan nan nan nan nan nan nan nan -0 -0 -0 -0 -0 -0 -0 -0 -0 -0 -0 -0 -0 -0 -0 -0 -0 -0 -0 -0 -0
nan nan nan nan nan nan nan nan nan nan nan nan nan nan nan nan nan nan nan nan nan nan nan nan nan nan nan nan nan nan nan nan nan nan nan nan nan nan nan nan nan nan nan nan nan nan nan nan nan nan nan nan nan nan nan nan nan nan nan -0 -0 -0 -0 -0 -0 -0 -0 -0 -0 -0 -0 -0 -0 -0 -0 -0 -0 -0 -0 -0 -0 -0 -0 -0 -0 -0
nan nan nan nan nan nan nan nan nan nan nan nan nan nan nan nan nan nan nan nan nan nan nan nan nan nan nan nan nan nan nan nan nan nan nan nan nan nan nan nan nan nan nan nan nan nan nan nan nan nan nan nan nan nan nan nan nan -0 -0 -0 -0 -0 -0 -0 -0 -0 -0 -0 -0 -0 -0 -0 -0 -0 -0 -0 -0 -0 -0 -0 -0 -0 -0 -0 -0 -0
nan nan nan nan nan nan nan nan nan nan nan nan nan nan nan nan nan nan nan nan nan nan nan nan nan nan nan nan nan nan nan nan nan nan nan nan nan nan nan nan nan nan nan nan nan nan nan nan nan nan nan nan nan nan nan nan nan -0 -0 -0 -0 -0 -0 -0 -0 -0 -0 -0 -0 -0 -0 -0 -0 -0 -0 -0 -0 -0 -0 -0 -0 -0 -0 -0 -0 -0
nan nan nan nan nan nan nan nan nan nan nan nan nan nan nan nan nan nan nan nan nan nan nan nan nan nan nan nan nan nan nan nan nan nan nan nan nan nan nan nan nan nan nan nan nan nan nan nan nan nan nan nan nan nan nan -0 -0 -0 -0 -0 -0 -0 -0 -0 -0 -0 -0 -0 -0 -0 -0 -0 -0 -0 -0 -0 -0 -0 -0 -0 -0 -0 -0 -0 -0 -0
nan nan nan nan nan nan nan nan nan nan nan nan nan nan nan nan nan nan nan nan nan nan nan nan nan nan nan nan nan nan nan nan nan nan nan nan nan nan nan nan nan nan nan nan nan nan nan nan nan nan nan nan nan nan nan -0 -0 -0 -0 -0 -0 -0 -0 -0 -0 -0 -0 -0 -0 -0 -0 -0 -0 -0 -0 -0 -0 -0 -0 -0 -0 -0 -0 -0 -0 -0
nan nan nan nan nan nan nan nan nan nan nan nan nan nan nan nan nan nan nan nan nan nan nan nan nan nan nan nan nan nan nan nan nan nan nan nan nan nan nan nan nan nan nan nan nan nan nan nan nan nan nan nan nan nan nan nan nan -0 -0 -0 -0 -0 -0 -0 -0 -0 -0 -0 -0 -0 -0 -0 -0 -0 -0 -0 -0 -0 -0 -0 -0 -0 -0 -0 -0 -0
nan nan nan nan nan nan nan nan nan nan nan nan nan nan nan nan nan nan nan nan nan nan nan nan nan nan nan nan nan nan nan nan nan nan nan nan nan nan nan nan nan nan nan nan nan nan nan nan nan nan nan nan nan nan nan nan nan -0 -0 -0 -0 -0 -0 -0 -0 -0 -0 -0 -0 -0 -0 -0 -0 -0 -0 -0 -0 -0 -0 -0 -0 -0 -0 -0 -0 -0
nan nan nan nan nan nan nan nan nan nan nan nan nan nan nan nan nan nan nan nan nan nan nan nan nan nan nan nan nan nan nan nan nan nan nan nan nan nan nan nan nan nan nan nan nan nan nan nan nan nan nan nan nan nan nan -0 -0 -0 -0 -0 -0 -0 -0 -0 -0 -0 -0 -0 -0 -0 -0 -0 -0 -0 -0 -0 -0 -0 -0 -0 -0 -0 -0 -0 -0 -0
nan nan nan nan nan nan nan nan nan nan nan nan nan nan nan nan nan nan nan nan nan nan nan nan nan nan nan nan nan nan nan nan nan nan nan nan nan nan nan nan nan nan nan nan nan nan nan nan nan nan nan nan nan nan nan -0 -0 -0 -0 -0 -0 -0 -0 -0 -0 -0 -0 -0 -0 -0 -0 -0 -0 -0 -0 -0 -0 -0 -0 -0 -0 -0 -0 -0 -0 -0
nan nan nan nan nan nan nan nan nan nan nan nan nan nan nan nan nan nan nan nan nan nan nan nan nan nan nan nan nan nan nan nan nan nan nan nan nan nan nan nan nan nan nan nan nan nan nan nan nan nan nan nan nan nan -0 -0 -0 -0 -0 -0 -0 -0 -0 -0 -0 -0 -0 -0 -0 -0 -0 -0 -0 -0 -0 -0 -0 -0 -0 -0 -0 -0 -0 -0 -0 -0
nan nan nan nan nan nan nan nan nan nan nan nan nan nan nan nan nan nan nan nan nan nan nan nan nan nan nan nan nan nan nan nan nan nan nan nan nan nan nan nan nan nan nan nan nan nan nan nan nan nan nan nan nan nan -0 -0 -0 -0 -0 -0 -0 -0 -0 -0 -0 -0 -0 -0 -0 -0 -0 -0 -0 -0 -0 -0 -0 -0 -0 -0 -0 -0 -0 -0 -0 -0
nan nan nan nan nan nan -25 -0 -0 -0 nan nan nan nan nan nan nan nan nan nan nan nan nan nan nan -7 nan nan nan nan nan nan nan nan nan nan nan nan nan nan nan nan nan nan nan nan nan nan nan nan nan nan nan nan nan -0 -0 -0 -0 -0 -0 -0 -0 -0 -0 -0 -0 -0 -0 -0 -0 -0 -0 -0 -0 -0 -0 -0 -0 -0 -0 -0 -0 -0 -0 -0
-8 -10 -0 -0 -0 -0 -0 -0 -0 -0 -0 -2 nan nan nan nan nan nan nan nan nan nan nan nan nan nan nan nan nan nan nan nan nan nan nan nan nan nan nan nan nan nan nan nan nan nan nan nan nan nan nan nan nan nan nan nan nan -0 -0 -0 -0 -0 -0 -0 -0 -0 -0 -0 -0 -0 -0 -0 -0 -0 -0 -0 -0 -0 -0 -0 -0 -0 -0 -0 -0 -0
-0 -0 -0 -0 -0 -0 -0 -1 -0 -0 -0 -0 -0 -0 -21 nan nan nan nan nan nan nan nan nan nan nan nan nan nan nan nan nan nan nan nan nan nan nan nan nan nan nan nan nan nan nan nan nan nan nan nan nan nan nan nan nan nan nan nan -0 -0 -0 -0 -0 -0 -0 -0 -0 -0 -0 -0 -0 -0 -0 -0 -0 -0 -0 -0 -0 -0 -0 -0 -0 -0 -17
-19 -6 -5 -5 -5 -9 -12 nan nan nan -1 -0 -0 -0 nan nan nan nan nan nan nan nan nan nan nan nan nan nan nan nan nan nan nan nan nan nan nan nan nan nan nan nan nan nan nan nan nan nan nan nan nan nan nan nan nan nan nan nan nan nan nan nan nan nan nan nan nan nan -0 -0 -0 -0 -0 -0 -0 -0 -0 -0 -0 -0 -0 -0 -0 -0 -0 nan
nan nan nan nan nan nan nan nan nan nan nan -0 -0 -0 nan nan nan nan nan nan nan nan nan nan nan nan nan nan nan nan nan nan nan nan nan nan nan nan nan nan nan nan nan nan nan nan nan nan nan nan nan nan nan nan nan nan nan nan nan nan nan nan nan nan nan nan nan nan -0 -0 -0 -0 -0 -0 -0 -0 -0 -0 -0 -0 -0 -0 -0 -10 -10 -13
nan nan nan nan nan nan nan nan nan nan nan nan nan nan nan nan nan nan nan nan nan nan nan nan nan nan nan nan nan nan nan nan nan nan nan nan nan nan nan nan nan nan nan nan nan nan nan nan nan nan nan nan nan nan nan nan nan nan nan nan nan nan nan nan nan nan nan nan -0 -0 -0 -0 -0 -0 -0 -0 -0 -0 -0 -0 -0 -0 -6 -20 -20 nan
nan nan nan nan nan nan nan nan nan nan nan nan nan nan nan nan nan nan nan nan nan nan nan nan nan nan nan nan nan nan nan nan nan nan nan nan nan nan nan nan nan nan nan nan nan nan nan nan nan nan nan nan nan nan nan nan nan nan nan nan nan nan nan nan nan nan nan nan nan nan -0 -0 -0 -0 -0 -0 -0 -0 -0 -0 -0 -0 -2 -16 -16 nan
nan nan nan nan nan nan nan nan nan nan nan nan nan nan nan nan -0 -0 nan nan nan nan nan nan nan nan nan nan nan nan nan nan -17 -17 nan nan nan nan nan nan nan nan nan nan nan nan nan nan nan nan nan nan nan nan nan nan nan nan nan nan nan nan nan nan nan nan nan nan nan nan nan nan nan nan nan -0 -0 -0 -0 -0 -0 -0 -0 -11 -11 -12
nan nan nan nan nan nan nan nan nan nan nan nan nan nan nan nan nan nan nan nan nan nan nan nan nan nan nan nan nan nan nan nan -6 -6 -12 nan nan nan nan nan nan nan nan nan nan nan nan nan nan nan nan nan nan nan nan nan nan nan nan nan nan nan nan nan nan nan nan nan nan nan nan nan nan nan nan nan nan nan -0 -0 -0 -0 -0 -0 -0 -6
nan nan nan nan nan nan nan nan nan nan nan nan nan nan nan nan nan nan nan nan nan nan nan nan nan nan nan nan nan nan -0 nan nan nan -6 nan nan nan nan nan nan nan nan nan nan nan nan nan nan -1 nan nan nan nan nan nan nan nan nan nan nan nan nan nan nan nan nan nan nan nan nan nan nan nan nan nan nan nan -0 -0 -0 -0 -0 -0 -0 -0
nan nan nan nan nan nan nan nan nan nan nan nan nan nan nan nan nan nan nan nan nan nan nan nan nan nan nan nan nan nan nan nan nan nan nan nan nan nan nan nan nan nan nan nan nan nan nan nan nan -1 -0 nan nan nan nan nan nan nan nan nan nan nan nan nan nan nan nan nan nan nan nan nan nan nan nan nan -0 -0 -0 -0 -0 -0 -0 -0 -0 -0
nan nan nan nan nan nan nan nan nan nan nan nan nan nan nan nan nan nan nan nan nan nan nan nan nan nan nan nan nan nan nan nan nan nan nan nan nan nan nan nan nan nan nan nan nan nan nan nan nan -2 nan nan nan nan nan nan nan nan nan nan nan nan nan nan nan nan nan nan nan nan nan nan nan nan nan nan -0 -0 -0 -0 -0 -0 -0 -0 -0 -0
nan nan nan nan nan nan nan nan nan nan nan nan nan nan nan nan nan nan nan nan nan nan nan nan nan nan nan nan nan nan nan nan nan nan nan nan nan nan nan nan nan nan nan nan nan nan nan nan nan nan nan nan nan nan nan nan nan nan nan nan nan nan nan nan nan nan nan nan nan nan nan nan nan nan nan nan nan nan nan nan nan nan -0 -0 -0 -0
nan nan nan nan nan nan nan nan nan nan nan nan nan nan nan nan nan nan nan nan nan nan nan nan nan nan nan nan nan nan nan nan nan nan nan nan nan nan nan nan nan nan nan nan nan nan nan nan nan nan nan nan nan nan nan nan nan nan nan nan nan nan nan nan nan nan nan nan nan nan nan nan nan nan nan nan nan nan nan nan nan nan nan nan nan nan
nan nan nan nan nan nan nan nan nan nan nan nan nan nan nan nan nan nan nan nan nan nan nan nan nan nan nan nan nan nan nan nan nan nan nan nan nan nan nan nan nan nan nan nan nan nan nan nan nan nan nan nan nan nan nan nan nan nan -0 nan nan nan nan nan nan nan nan nan nan nan nan nan nan nan nan nan nan nan nan nan nan nan nan nan nan nan
nan nan nan nan nan nan nan nan nan nan nan nan nan nan nan nan nan nan nan nan nan nan nan nan nan nan nan nan nan nan nan nan nan nan nan nan nan nan nan nan nan nan nan nan nan nan nan nan nan nan nan nan nan nan -2 nan nan -0 -0 nan nan nan nan nan nan nan nan nan nan nan nan nan nan nan nan nan nan nan nan nan nan nan nan nan nan nan
nan nan nan nan nan nan nan nan nan nan nan nan nan nan nan nan nan nan nan nan nan nan nan nan nan nan nan nan nan nan nan nan nan nan nan nan nan nan nan nan nan nan nan nan nan nan nan -3 -3 nan nan nan nan nan nan nan nan -2 -0 nan nan nan nan nan nan nan nan nan nan nan nan nan nan nan nan nan nan nan nan nan nan nan nan nan nan nan
nan nan nan nan nan nan nan nan nan nan nan nan nan nan nan nan nan nan nan nan nan nan nan nan nan nan nan nan nan nan nan nan nan nan nan nan nan nan nan nan nan nan nan nan nan nan nan nan nan nan nan nan nan nan nan nan nan nan nan nan nan -2 nan nan nan nan nan nan nan nan nan nan nan nan nan nan nan nan nan nan nan -4 -0 nan nan nan
nan nan nan nan nan nan nan nan nan nan nan nan nan nan nan nan nan nan nan nan nan nan nan nan nan nan nan nan nan nan nan nan nan nan nan nan nan nan nan nan nan nan nan nan nan nan nan nan nan nan nan nan nan nan nan nan nan nan nan nan nan nan nan nan nan nan nan nan nan nan nan nan nan nan nan nan nan nan nan nan nan nan nan nan nan nan
nan nan nan nan nan nan nan nan -8 -8 nan nan nan nan nan nan nan nan nan nan nan nan nan nan nan nan nan nan nan nan nan nan nan nan nan nan -0 -0 nan nan nan nan nan nan nan nan nan nan nan nan nan nan nan nan nan nan nan nan nan -1 -1 -3 nan nan nan nan nan nan nan nan nan nan nan nan nan nan nan nan nan nan nan nan nan nan nan nan
nan nan nan nan nan nan nan nan -14 -14 nan nan nan nan nan nan nan nan nan nan nan nan nan nan nan nan nan nan nan nan nan nan nan nan nan nan nan nan nan nan nan nan nan nan nan nan nan nan nan nan nan nan nan nan nan nan nan nan nan -2 -2 nan nan nan nan nan nan nan nan nan nan nan nan nan nan nan nan nan nan nan nan nan nan nan nan nan
nan nan nan nan nan nan nan nan nan nan nan nan nan nan nan nan nan nan nan nan nan nan nan nan nan nan nan nan nan nan nan nan nan nan nan nan nan nan nan nan nan nan nan nan nan nan nan nan nan nan nan nan nan nan nan nan nan nan nan nan nan nan nan nan nan nan nan nan nan nan nan nan nan nan nan nan nan nan nan nan nan nan nan nan nan nan
nan nan nan nan nan nan nan nan nan nan nan nan nan nan nan nan nan nan nan nan nan nan nan nan nan nan nan nan nan nan nan nan nan nan nan nan nan nan nan nan nan nan nan nan nan nan nan nan nan nan nan nan nan nan nan nan nan nan nan nan nan nan nan nan nan nan nan nan nan nan nan nan nan nan nan nan nan nan nan nan nan nan nan nan nan nan
nan nan nan nan nan nan nan nan nan nan nan nan nan nan nan nan -0 -0 nan nan nan nan nan nan nan nan nan nan nan nan nan nan nan nan nan nan nan nan nan nan nan nan nan nan nan nan nan nan nan nan nan nan nan nan nan nan nan nan nan nan nan nan nan nan nan nan nan nan nan nan nan nan nan nan nan nan nan nan nan nan nan nan nan nan nan nan
nan nan nan nan nan nan nan nan nan nan nan nan nan nan nan nan nan nan nan nan nan nan nan nan nan nan nan nan nan nan nan nan nan nan nan nan nan nan nan nan nan nan nan nan nan nan nan nan nan nan nan nan nan nan nan nan nan nan nan nan nan nan nan nan nan nan nan nan nan nan nan nan nan nan nan nan nan nan nan nan nan nan nan nan nan nan
nan nan nan nan nan nan nan nan nan nan nan nan nan nan nan nan nan nan nan nan nan nan nan nan nan nan nan nan nan nan nan nan nan nan nan nan nan nan nan nan nan nan nan nan nan nan nan nan nan nan nan -0 nan nan nan nan nan nan nan nan nan nan nan nan nan nan nan nan nan nan nan nan nan nan nan nan nan nan nan nan nan nan nan nan nan nan
Wind_Speed
1 1 1 2 2 2 2 3 3 3 2 2 2 3 3 3 3 3 3 4 3 3 3 3 3 3 4 4 5 6 6 6 6 6 5 5 5 5 5 5 6 7 8 9 10 11 12 12 12 12 12 11 11 11 11 11 12 12 12 12 12 12 12 12 12 12 12 12 11 11 11 10 10 10 10 9 9 9 9 9 10 10 10 10 10 10
2 2 2 2 2 2 2 3 3 3 2 2 2 3 3 3 2 2 2 3 3 3 3 3 3 3 2 2 3 4 5 5 5 5 5 5 5 5 5 6 7 8 9 10 11 11 11 11 11 11 10 10 11 11 11 11 11 11 11 11 11 11 11 11 11 11 11 11 11 11 10 10 10 10 10 10 10 10 10 10 10 11 11 11 11 11
2 2 2 2 2 2 2 2 2 2 2 2 2 3 4 3 2 2 2 2 2 2 2 2 2 2 1 1 2 4 4 5 5 5 5 5 5 6 6 7 8 9 10 10 11 10 10 10 10 10 10 10 11 11 11 12 11 11 11 11 11 11 11 11 10 10 10 10 10 10 10 10 10 10 10 10 11 11 11 11 11 11 11 11 11 12
2 1 2 2 2 2 2 2 2 2 2 3 3 3 3 3 2 2 1 2 2 1 1 1 1 1 1 2 3 4 5 5 6 6 6 6 6 7 8 8 9 9 10 10 9 9 9 9 9 10 10 11 11 12 12 12 12 12 11 11 11 11 11 10 10 10 10 9 9 10 10 10 10 10 10 10 11 11 11 11 11 11 11 12 12 12
1 1 1 1 2 2 2 2 2 2 2 2 2 2 2 2 2 2 2 1 1 1 1 1 1 2 2 2 3 5 6 6 6 6 7 7 8 8 8 8 8 8 8 8 8 8 8 8 9 10 10 11 11 12 12 12 12 12 11 11 11 11 10 10 9 9 9 8 8 9 9 9 9 9 9 10 10 11 11 11 11 11 11 12 12 12
1 1 1 1 1 1 1 1 2 2 2 2 2 2 2 2 1 1 1 1 1 0 1 1 1 2 2 3 4 6 6 6 6 7 7 7 8 8 7 7 6 6 6 6 7 7 8 9 9 10 10 11 11 11 11 11 11 11 10 10 10 9 9 9 8 8 8 7 8 8 8 8 9 9 9 10 10 10 11 11 11 11 11 11 12 12
1 1 1 1 1 1 1 1 1 1 1 1 1 1 1 1 1 1 1 0 1 1 1 1 1 2 2 3 5 6 6 6 7 7 7 6 5 5 4 4 4 5 5 6 7 8 9 9 10 10 11 11 11 11 11 10 10 9 9 8 8 8 8 7 7 7 7 7 7 8 8 8 9 9 10 10 10 10 11 11 11 11 11 12 12 12
1 1 1 1 1 1 1 1 1 1 1 1 1 1 1 1 0 0 0 1 1 1 1 2 2 2 2 3 3 3 3 4 5 5 5 4 3 3 3 3 4 5 6 7 8 8 9 10 10 10 11 11 11 11 10 10 10 9 8 8 8 7 7 7 7 7 7 7 8 8 9 9 10 10 11 11 11 11 11 11 12 12 12 12 12 12
1 1 1 1 1 1 1 1 1 1 1 1 1 1 1 0 0 0 1 1 1 1 1 2 2 2 2 1 1 2 2 2 2 2 1 1 1 2 3 4 4 5 6 7 8 9 9 10 10 10 11 11 11 11 11 10 10 9 9 9 8 8 8 8 8 8 8 8 9 9 10 10 11 11 11 12 12 12 12 12 12 12 12 12 12 12
2 1 1 1 1 1 1 1 1 1 1 1 0 0 1 1 1 1 1 1 1 0 0 1 1 2 1 1 2 2 2 2 2 1 2 3 3 3 4 5 5 6 7 8 8 9 9 10 10 10 10 11 11 11 11 10 10 10 10 9 9 9 9 9 9 9 9 10 10 11 11 11 12 12 12 12 12 12 12 12 12 12 12 12 12 12
2 1 1 1 1 1 1 1 1 1 2 1 1 0 0 1 1 1 1 1 1 1 1 1 1 1 2 2 2 2 2 2 3 3 5 5 5 5 6 6 6 6 7 8 8 9 9 10 10 10 10 10 10 10 10 10 10 10 10 10 10 10 10 10 10 10 11 11 11 12 12 12 12 12 13 13 12 12 12 12 12 11 11 12 12 12
1 1 1 1 1 1 1 1 1 1 1 1 1 1 1 1 0 1 1 1 1 1 2 2 1 1 2 2 3 3 2 2 2 3 4 4 5 5 5 5 5 6 6 7 7 8 9 10 10 10 10 9 10 10 9 9 9 10 10 10 10 11 11 11 11 11 12 12 12 12 12 13 13 13 13 13 12 12 12 12 12 11 11 12 12 12
1 1 1 1 1 1 1 1 1 1 1 1 1 1 1 1 1 0 0 0 1 1 2 2 2 2 2 2 2 2 2 2 2 2 2 3 3 3 3 3 3 3 3 4 4 5 7 9 9 9 9 9 9 9 9 9 9 10 10 10 11 11 11 11 12 12 12 12 12 13 13 13 13 13 12 12 12 12 12 12 12 12 12 12 12 12
1 1 1 1 1 1 1 1 1 1 1 1 1 1 1 1 1 1 1 1 1 1 2 2 2 2 2 2 2 2 2 2 2 2 3 2 2 2 1 2 2 2 1 2 3 4 6 7 6 7 8 8 9 9 9 10 10 10 10 10 11 11 11 11 12 12 12 12 12 12 12 12 12 12 12 12 12 12 12 12 12 12 12 12 12 12
1 1 2 1 1 1 1 1 1 1 1 1 1 1 1 2 2 2 1 1 2 2 2 3 3 3 3 2 2 2 2 2 2 2 3 3 2 1 1 1 1 2 1 2 3 4 6 5 4 4 5 6 7 8 9 9 9 10 10 10 10 11 11 11 11 12 12 12 12 12 12 12 12 12 12 12 12 12 12 12 12 12 12 12 12 12
1 1 1 1 1 1 1 1 1 1 1 1 2 2 2 2 2 2 2 1 2 2 3 3 3 3 3 2 2 2 2 2 2 1 2 3 2 1 1 0 1 2 2 2 3 3 3 3 3 4 4 7 9 10 10 9 9 10 10 10 10 11 11 11 11 11 12 12 12 12 12 12 12 12 12 12 12 12 12 12 11 11 11 12 12 12
1 1 1 0 1 1 2 1 1 1 1 2 2 1 1 1 1 1 1 1 1 2 2 2 1 1 2 3 2 1 1 1 1 0 1 2 2 1 1 1 1 2 2 2 3 3 3 3 3 4 4 7 9 10 10 9 9 10 10 10 10 11 11 11 11 11 12 12 12 12 12 12 12 12 12 12 12 12 12 12 12 12 12 12 12 13
1 1 1 0 1 1 2 1 1 1 1 1 1 1 1 1 1 1 1 1 1 2 1 1 1 1 1 2 2 2 0 1 1 0 1 3 3 2 1 1 1 2 2 3 3 3 3 3 3 4 5 8 9 10 10 10 10 10 10 11 11 11 11 11 12 12 12 12 12 12 12 12 12 12 12 12 12 12 12 12 12 12 12 13 13 13
0 1 1 1 1 1 2 2 2 1 1 1 1 1 1 1 1 1 1 1 1 2 2 1 1 1 2 2 2 2 0 1 0 1 2 3 3 1 0 1 1 2 2 3 3 3 3 3 4 6 8 9 10 11 11 11 11 12 12 12 12 12 12 12 12 12 12 12 12 12 12 12 12 12 12 12 12 12 12 12 12 13 13 13 13 13
1 1 2 2 2 1 1 2 2 2 2 2 2 2 1 0 0 1 0 0 1 1 2 2 1 2 2 3 3 2 1 0 0 1 2 3 3 2 0 0 1 1 2 3 3 3 2 3 4 5 8 9 11 12 13 13 13 13 13 13 13 12 12 12 12 12 12 12 12 12 12 12 12 12 12 12 12 12 12 13 13 13 13 13 13 13
1 2 3 3 2 1 1 2 2 2 2 2 2 2 1 1 0 0 0 0 0 0 1 1 2 2 2 3 3 2 1 0 0 1 2 2 3 2 1 1 0 1 2 3 3 3 2 2 3 4 6 9 11 13 14 14 14 14 13 13 13 13 12 12 12 12 12 12 12 12 12 12 12 12 12 12 12 12 12 13 13 13 13 13 13 14
1 1 2 3 3 2 2 2 2 1 2 2 2 1 0 0 0 1 1 1 1 1 1 2 2 2 2 2 3 2 1 1 1 0 1 2 3 3 1 1 1 1 2 3 3 3 2 2 3 4 6 10 13 14 15 14 14 14 13 13 13 12 12 12 12 12 12 12 12 12 12 12 12 12 12 12 12 12 12 12 13 13 13 13 14 14
2 1 2 3 3 3 2 2 1 1 2 2 2 2 2 2 2 2 2 2 2 2 3 3 2 1 1 2 2 2 1 1 1 1 1 1 3 3 1 1 1 1 2 3 3 3 2 2 3 4 7 11 13 14 14 14 13 13 12 12 12 11 11 11 11 11 11 11 11 11 11 11 11 11 11 11 12 12 12 12 13 13 14 14 14 15
2 1 1 2 3 3 2 2 1 1 2 2 2 2 2 2 2 2 2 2 2 2 2 1 1 1 2 2 2 1 1 1 1 1 1 1 3 3 2 1 1 2 3 3 2 2 3 3 4 4 5 9 12 13 12 12 11 11 10 10 10 10 9 9 9 9 9 9 9 9 10 10 10 11 11 11 12 12 13 13 13 14 14 15 15 15
2 1 1 2 2 2 1 1 1 1 1 2 2 2 2 2 2 2 1 1 1 1 0 1 2 2 2 2 2 1 1 0 1 1 1 1 2 3 2 1 1 2 3 3 2 2 2 4 4 4 4 6 8 10 10 10 9 8 8 7 7 7 7 7 7 7 8 8 9 9 10 10 11 11 12 12 13 13 13 14 14 14 14 15 15 15
2 1 1 0 1 2 4 5 6 6 5 2 1 2 2 2 1 1 1 1 1 1 1 2 3 3 3 2 2 2 1 1 1 1 1 1 2 3 2 1 1 1 3 3 3 2 3 4 4 4 2 3 5 7 8 8 8 7 6 6 6 6 6 7 8 8 9 9 10 10 11 11 12 12 13 13 13 14 14 14 14 14 15 15 15 15
2 2 3 4 5 6 7 8 9 10 10 9 7 4 1 2 1 1 2 2 2 2 2 3 3 3 3 2 2 2 2 1 1 1 2 1 1 2 2 1 1 1 2 3 3 3 5 5 4 3 2 2 3 5 7 8 8 8 8 8 8 8 9 10 10 10 11 11 11 12 12 12 12 13 13 13 13 14 14 14 14 14 14 14 13 12
4 4 5 5 6 6 6 7 7 8 9 10 11 9 4 1 1 2 3 2 2 1 2 3 3 3 3 2 2 2 2 2 1 1 2 1 1 2 2 1 1 1 2 3 3 4 5 4 4 3 3 2 3 4 5 7 8 9 10 10 11 11 12 12 12 12 12 12 12 12 12 13 13 13 13 13 13 14 14 14 14 14 13 11 8 6
5 5 5 5 6 6 6 6 6 7 8 9 10 9 5 1 1 3 4 2 1 1 2 3 3 3 3 2 2 2 2 2 2 1 2 1 1 2 2 1 1 1 2 3 3 3 3 3 2 2 2 3 3 3 4 6 7 8 9 11 12 13 13 13 13 13 13 13 13 13 13 13 13 13 13 13 13 14 14 14 14 12 10 8 6 5
4 5 5 5 5 5 4 4 5 6 7 8 9 8 4 1 2 3 3 2 2 1 2 3 3 3 2 2 2 2 2 2 1 1 2 1 1 2 1 1 1 1 1 2 3 3 3 2 2 2 2 3 3 3 3 5 5 6 7 9 10 11 13 13 13 13 13 13 13 13 13 13 13 13 13 13 14 14 14 14 13 10 7 5 5 4
2 2 3 3 3 3 3 3 3 4 6 6 7 6 3 1 2 3 2 3 3 2 3 3 2 2 2 2 2 2 2 2 2 2 2 1 1 1 1 1 2 1 1 1 2 3 3 3 2 2 2 3 3 4 4 4 4 4 4 5 6 8 11 12 12 12 12 12 12 13 13 13 14 14 14 14 14 14 14 14 13 10 6 5 4 4
1 1 2 2 2 3 3 3 3 3 4 4 4 3 2 1 2 2 2 3 3 3 3 2 2 2 2 2 2 2 2 2 2 3 3 2 1 1 1 1 1 1 1 0 1 2 3 3 3 2 2 2 3 3 3 3 3 3 3 3 4 5 9 10 10 10 10 11 12 13 13 14 14 14 15 15 15 15 14 14 13 10 6 5 4 4
1 1 2 2 3 3 3 2 3 3 3 3 3 2 2 2 1 2 2 2 3 3 3 2 2 2 2 3 3 3 2 2 2 4 4 2 1 1 1 1 1 2 1 1 1 2 2 3 3 3 3 3 3 2 3 3 3 3 3 3 3 4 6 7 7 7 7 9 10 11 12 13 14 14 15 15 15 15 15 15 14 12 8 6 5 5
2 2 2 3 3 3 3 3 3 3 3 3 3 2 2 1 1 1 2 2 2 3 3 3 2 2 2 2 2 3 2 2 2 2 1 1 1 1 1 2 2 2 2 2 2 2 3 3 4 4 4 3 3 2 2 2 3 3 2 2 3 3 4 4 4 5 6 6 6 7 8 9 11 12 13 13 14 14 14 14 14 14 12 8 6 5
2 2 2 3 3 3 3 3 3 3 3 3 3 2 2 2 1 1 1 2 2 2 2 2 2 2 2 1 2 2 3 2 3 4 4 2 1 2 2 2 2 2 2 3 3 3 3 4 5 5 5 5 4 3 2 2 2 2 2 2 3 3 3 3 3 4 5 5 5 5 5 5 6 8 9 11 12 13 14 15 15 15 15 13 11 8
2 2 2 2 2 3 3 3 3 3 3 3 2 2 2 2 2 1 1 1 1 1 1 1 1 2 2 2 2 2 3 3 3 4 4 2 2 2 2 2 2 2 3 3 3 3 3 4 5 6 7 6 5 4 2 2 1 2 2 2 3 3 4 4 4 4 4 4 5 5 4 4 5 5 7 10 12 14 15 15 15 15 15 15 14 13
1 2 2 2 2 2 3 3 2 2 2 3 2 2 2 2 2 2 2 1 1 1 1 2 2 2 2 2 2 3 3 3 3 3 3 2 2 2 2 3 3 3 3 3 4 4 4 5 6 6 6 5 5 4 3 2 2 2 2 3 3 4 4 4 4 4 4 5 5 5 4 4 5 5 6 10 12 13 14 14 15 15 15 16 16 16
1 2 2 2 1 1 2 2 2 2 2 2 3 3 3 2 2 2 2 2 1 1 1 2 2 3 4 4 3 3 3 3 4 4 4 3 2 2 3 3 4 4 3 3 4 4 4 5 5 6 5 5 5 5 5 4 4 3 3 3 4 4 4 4 4 4 4 5 5 6 6 5 5 5 5 7 7 7 7 8 9 11 13 13 15 16
1 2 2 2 2 1 2 2 2 3 3 3 3 3 3 3 2 2 2 2 2 2 2 2 2 3 4 4 5 5 5 4 4 4 4 4 3 3 3 4 4 4 3 3 3 3 4 4 5 5 5 5 5 6 5 5 4 4 4 4 4 3 3 3 3 3 4 4 5 6 6 5 5 4 4 4 4 4 5 5 6 7 8 7 9 11
1 2 3 3 2 2 3 3 3 3 3 3 4 4 3 2 2 2 1 1 2 2 2 2 2 3 3 4 5 5 5 4 4 4 3 3 3 3 3 4 4 3 3 3 3 3 4 4 5 6 6 5 5 6 5 5 5 6 7 6 4 3 2 2 3 3 3 4 4 5 5 4 4 4 4 4 4 4 4 4 5 5 5 5 5 5
2 2 3 3 3 3 4 4 3 3 3 3 3 3 3 2 2 2 2 2 3 3 2 2 2 2 3 3 3 4 4 5 5 4 3 4 4 4 3 4 3 3 3 3 3 4 4 5 5 6 5 5 6 7 7 7 7 8 9 7 6 5 5 5 4 3 3 3 4 4 4 5 5 5 5 5 5 5 5 5 5 5 5 4 4 4
3 3 3 3 3 3 3 3 3 3 3 2 2 2 2 2 1 1 2 2 2 2 2 2 2 2 3 3 3 3 4 4 5 5 5 5 5 5 4 4 3 3 3 4 4 4 5 5 6 6 5 5 5 6 7 7 7 8 7 7 7 8 8 6 4 2 2 2 3 3 5 5 4 4 5 5 5 5 5 5 6 7 7 5 5 5
3 3 3 3 3 3 3 3 3 3 2 2 1 2 2 2 2 2 2 2 2 2 2 2 2 2 3 3 3 3 3 4 5 5 5 5 5 5 5 5 4 4 3 3 4 4 5 5 6 6 5 5 5 6 8 8 7 7 7 7 7 7 5 4 3 2 2 3 4 4 4 4 5 5 5 6 5 5 5 6 8 9 9 7 6 5
3 3 3 3 3 3 3 2 2 2 1 1 2 2 2 2 2 2 2 2 2 2 3 2 2 2 3 3 3 3 3 3 4 4 5 6 6 6 5 5 5 5 4 4 4 4 4 5 5 5 5 5 5 6 7 7 7 7 7 7 7 7 6 5 5 5 5 5 4 4 4 4 5 6 6 6 6 5 5 5 5 6 7 7 6 6
2 2 2 2 2 2 2 2 2 2 2 2 2 2 2 2 2 1 1 2 2 2 2 2 2 2 3 3 3 3 2 2 2 3 3 5 7 7 6 5 5 5 5 5 4 4 4 5 5 5 4 5 6 7 7 8 8 8 8 8 7 7 7 7 7 7 7 6 5 5 4 4 4 5 6 6 6 6 6 6 6 6 6 6 6 6
1 2 2 2 1 2 2 3 2 2 2 2 2 2 2 2 1 1 2 2 2 2 2 2 2 2 3 3 3 3 3 2 2 2 2 3 4 4 5 5 5 5 4 5 5 5 5 5 5 5 5 5 6 7 7 7 8 8 8 8 7 7 7 7 7 7 7 6 6 5 4 4 4 5 6 7 7 7 6 6 6 6 6 6 6 6
1 2 2 2 2 2 2 2 2 2 2 2 2 2 2 2 2 2 2 2 2 2 3 2 2 3 3 4 3 3 4 3 3 3 2 2 3 3 3 4 4 5 4 5 5 6 6 6 6 6 5 6 7 7 8 7 7 7 7 7 7 7 7 7 6 6 6 6 6 5 4 4 5 6 7 7 7 7 6 6 6 6 6 6 6 6
2 2 2 2 2 2 2 2 2 1 2 2 2 2 2 2 2 2 2 2 2 3 3 3 3 3 4 4 4 4 4 4 4 3 3 3 3 3 3 3 3 4 4 5 6 6 7 7 7 7 7 7 7 8 8 7 7 7 7 7 7 7 7 7 7 6 6 6 6 5 4 4 5 7 7 8 8 8 7 7 7 6 6 6 6 6
2 2 2 2 3 3 2 2 2 2 2 2 3 2 2 3 4 4 3 2 2 3 3 3 4 4 4 4 4 4 5 4 4 4 3 3 2 2 2 2 2 3 3 4 5 5 6 7 8 9 9 8 8 9 9 8 7 7 6 6 6 7 7 7 7 6 6 6 6 5 5 5 5 6 6 8 9 9 9 8 7 7 6 6 6 6
2 2 2 2 2 2 3 2 2 2 3 3 3 3 2 2 2 3 3 3 3 3 3 4 4 4 5 4 4 4 4 4 4 4 3 3 2 2 2 2 2 2 3 3 3 3 4 5 6 9 11 12 11 10 9 8 8 7 7 6 6 6 7 7 7 6 6 6 6 5 5 5 5 5 6 7 9 10 11 9 8 7 6 6 6 6
2 2 2 2 2 3 3 3 3 3 3 3 3 3 3 3 3 3 3 3 3 3 4 4 4 5 5 5 5 5 5 4 4 4 4 3 2 2 2 2 2 3 3 3 3 3 3 3 4 5 7 12 14 13 9 8 7 6 6 6 6 5 6 6 6 6 6 6 5 5 5 5 6 6 6 7 8 10 10 10 9 8 6 5 5 6
Wind_Direction
8 24 37 38 40 38 27 22 26 32 40 45 51 62 76 72 57 44 48 57 61 62 66 63 58 46 23 356 341 331 321 313 305 298 292 289 287 286 287 286 286 285 285 283 280 278 276 276 276 277 278 278 278 277 277 276 275 274 273 273 273 272 273 274 276 277 279 281 283 285 289 291 293 294 295 294 294 293 292 290 289 287 287 286 286 285
20 29 36 34 35 38 39 30 28 29 31 40 55 70 82 79 66 46 44 57 61 63 66 66 66 62 48 353 315 299 290 283 276 271 268 267 269 272 277 280 281 281 280 278 277 276 276 278 280 283 286 287 288 287 287 285 284 283 282 280 279 279 279 280 280 281 282 284 285 287 288 290 290 290 290 289 288 287 286 286 285 285 285 284 283 282
20 29 33 33 32 34 39 37 35 34 35 39 51 70 88 91 84 66 53 62 66 69 74 80 88 94 101 231 254 255 254 252 252 252 254 256 260 265 270 273 274 274 273 273 273 274 276 280 285 289 292 292 292 292 291 289 288 286 285 284 283 282 281 281 281 281 282 283 283 284 285 286 286 286 285 284 284 283 282 281 281 280 280 279 278 277
23 30 32 35 38 38 34 35 36 41 45 43 47 58 79 90 91 83 69 70 75 85 99 113 132 149 165 206 228 234 235 237 240 245 247 252 256 259 262 264 266 266 267 268 270 274 279 285 290 293 294 293 292 291 289 287 286 284 283 282 280 279 277 277 277 277 277 279 280 281 281 282 282 282 281 280 280 279 279 278 277 276 275 275 274 273
30 35 35 39 46 45 33 32 41 50 54 49 46 48 57 72 81 83 73 72 80 102 138 161 177 187 192 208 225 233 234 238 242 247 250 253 255 257 258 259 261 262 265 269 275 281 288 293 296 297 296 293 291 288 286 284 283 282 281 280 279 278 276 276 276 276 276 278 279 280 281 281 281 281 281 281 281 280 280 279 278 277 276 275 274 274
35 37 39 45 51 52 37 36 48 61 65 57 49 44 42 49 60 73 80 84 102 151 195 203 208 211 214 222 234 241 246 251 256 259 261 261 261 260 259 261 264 268 274 282 289 295 300 303 303 302 299 295 291 288 286 284 285 286 287 287 288 288 286 284 282 281 280 279 280 282 283 284 284 284 284 284 284 284 283 282 281 280 278 277 276 275
44 39 42 51 60 62 52 45 56 69 79 75 66 56 47 50 57 71 102 143 181 205 224 228 229 230 233 238 245 252 260 268 273 276 277 277 278 278 276 279 285 290 295 300 304 306 309 309 308 306 303 300 297 295 294 294 296 299 302 303 304 303 300 295 291 287 284 283 283 284 286 286 285 285 284 283 283 283 282 282 281 280 279 277 276 274
57 44 41 47 56 61 63 51 49 54 68 86 93 92 79 71 87 131 178 199 205 213 223 230 234 236 237 248 258 267 278 281 285 289 290 304 322 333 328 325 320 316 313 313 313 314 314 312 311 309 307 305 303 303 304 304 307 310 313 312 311 308 303 299 295 291 288 287 286 285 285 284 283 282 280 279 279 278 277 277 276 276 275 274 273 272
55 46 36 34 34 41 53 44 32 27 32 65 103 125 134 151 200 226 218 221 218 215 217 231 239 245 249 274 308 316 312 292 276 269 285 352 14 14 10 4 350 337 329 326 323 320 318 315 312 309 307 306 305 305 306 307 309 311 311 310 307 304 300 297 294 291 289 287 284 283 282 281 280 279 277 276 275 273 273 272 271 271 271 271 271 271
41 39 34 21 18 24 39 30 8 2 6 21 59 123 149 170 205 253 277 263 260 253 239 248 256 269 292 341 0 357 340 314 303 320 46 40 39 38 32 23 9 353 342 336 331 326 321 316 311 307 304 303 302 302 303 305 306 306 305 303 300 297 294 292 289 286 284 282 281 279 278 277 276 275 274 273 272 270 269 268 268 268 269 269 270 270
28 25 26 12 8 12 23 5 346 347 1 3 354 331 237 196 196 224 271 280 298 325 344 337 327 325 335 348 355 358 356 343 346 0 20 23 27 30 28 22 12 0 350 341 334 327 320 313 308 303 301 300 300 300 300 301 300 298 295 292 290 287 285 283 282 280 278 277 276 275 274 273 273 272 271 270 269 267 267 266 266 265 266 267 268 268
18 8 9 1 356 357 359 350 349 356 10 4 334 307 288 278 223 200 233 259 291 327 334 339 353 10 9 353 347 347 355 2 0 358 1 9 13 16 17 14 8 359 352 341 331 321 314 308 303 300 299 299 299 299 298 296 292 289 285 282 280 278 277 276 275 274 273 272 272 271 270 269 269 268 267 266 266 265 264 263 263 263 263 263 265 266
356 352 354 353 350 349 354 356 360 2 8 1 308 285 289 321 349 29 194 242 310 332 329 333 341 355 11 2 351 345 353 4 0 352 349 351 356 0 6 2 356 350 348 337 323 311 305 301 299 298 298 298 298 297 296 291 287 282 278 275 273 271 271 270 269 269 268 268 267 267 266 266 265 265 264 263 263 262 261 261 260 260 260 261 263 265
350 353 5 357 350 348 359 8 6 356 338 333 311 294 297 336 2 24 52 18 354 342 343 346 341 339 344 351 351 352 1 11 6 357 349 335 332 340 1 345 329 321 329 318 301 291 289 292 294 295 295 295 295 294 291 287 282 277 273 270 268 267 267 266 266 265 265 264 264 264 263 263 263 262 262 261 261 260 260 259 259 260 260 262 264 266
357 7 17 356 343 340 352 3 359 335 311 322 325 328 339 0 15 30 50 8 346 346 5 5 353 339 331 330 339 354 12 30 25 6 343 319 310 311 31 333 309 296 292 284 279 279 281 284 283 282 284 285 285 283 282 279 275 273 271 269 267 266 265 264 264 263 263 262 262 262 262 262 261 261 262 262 262 261 261 261 261 262 264 266 268 270
18 38 37 346 325 322 323 340 333 313 303 319 335 352 12 13 19 32 61 29 1 4 25 21 1 340 327 327 339 2 22 46 47 21 335 307 297 286 113 341 297 285 271 266 267 270 276 271 265 263 268 276 280 281 283 279 276 274 273 271 269 268 267 266 265 264 263 263 262 262 262 262 262 262 262 263 264 264 264 265 266 267 268 270 272 273
43 60 72 8 320 305 295 307 302 290 297 318 340 6 38 31 32 46 74 66 40 34 42 54 35 336 318 316 320 334 16 67 83 65 312 290 282 264 139 169 264 274 272 265 264 265 269 268 266 264 265 274 280 284 286 284 282 281 279 277 275 273 271 269 268 267 266 265 264 264 263 263 263 263 263 264 266 267 268 269 269 271 271 273 274 275
53 88 107 86 290 284 289 297 292 285 288 309 335 2 32 32 39 59 84 95 89 78 70 87 121 186 277 290 287 283 287 143 144 222 285 278 273 260 156 181 230 257 269 268 265 263 261 262 263 266 273 284 288 291 293 292 290 287 285 282 279 276 274 272 270 269 267 266 266 265 265 265 265 264 265 265 266 268 269 270 271 271 272 272 273 274
201 188 160 184 223 257 283 280 266 249 231 216 191 138 59 21 29 53 80 120 133 138 143 152 174 198 215 252 261 262 231 194 217 282 290 282 276 265 125 194 233 251 263 265 265 263 262 264 271 277 284 292 295 296 297 295 293 290 287 284 280 278 275 273 271 269 268 267 266 266 266 266 266 265 265 265 266 267 268 269 269 270 271 271 272 273
193 213 202 193 191 216 292 273 251 227 209 189 162 138 118 87 58 66 87 131 149 151 147 159 187 214 220 244 259 267 247 195 287 296 284 278 277 280 359 355 267 269 275 269 266 265 268 274 282 288 292 294 296 297 296 294 292 290 286 283 280 277 274 272 270 269 268 267 267 267 267 267 266 266 266 266 266 266 267 268 269 269 270 271 272 273
175 216 214 180 159 146 267 262 249 225 192 145 113 95 81 53 17 349 235 154 134 118 114 168 212 219 213 236 253 264 255 141 67 309 288 286 285 288 330 36 9 296 286 276 273 272 275 280 282 284 287 293 294 295 295 293 291 289 285 282 279 276 274 272 270 269 268 267 267 267 267 267 267 267 266 266 266 267 268 268 270 271 272 273 274 275
159 208 212 176 166 171 222 243 241 205 158 132 115 98 111 127 283 270 229 189 181 189 200 216 221 220 213 240 252 261 266 164 152 174 310 304 297 294 313 25 32 309 281 277 277 280 285 281 277 278 283 291 293 294 294 293 291 288 284 281 278 275 273 271 270 269 268 267 267 267 267 267 267 268 268 269 269 270 271 272 273 274 275 276 276 276
138 167 184 177 183 196 222 238 240 199 163 163 174 188 189 183 195 209 206 192 193 200 207 214 222 230 232 249 259 266 258 188 149 128 88 293 288 288 301 359 7 315 276 273 279 289 301 291 280 279 285 291 293 294 295 293 290 286 283 279 276 274 272 271 270 269 268 268 268 269 269 270 271 272 274 274 275 275 276 276 276 277 277 277 277 277
132 157 177 185 194 205 221 230 234 220 191 194 200 202 194 189 190 191 188 184 183 187 195 209 248 278 268 262 270 279 259 181 131 113 107 265 274 280 294 338 335 304 280 272 278 294 307 295 284 277 280 289 293 296 298 296 293 289 283 279 276 274 272 272 272 272 272 274 275 276 277 278 279 280 280 281 280 280 279 279 278 278 277 277 277 277
147 168 188 194 202 210 229 251 275 283 200 201 201 201 195 196 190 179 162 163 169 179 234 289 295 295 293 292 298 302 294 209 128 122 131 259 276 282 287 300 295 284 280 281 285 297 301 294 288 282 278 289 296 302 305 305 302 296 289 285 283 282 283 285 287 288 289 289 289 289 288 288 287 285 284 283 282 281 280 279 278 278 278 277 277 276
150 166 177 306 332 340 348 342 343 344 336 318 253 202 183 187 184 179 179 205 213 231 270 285 287 288 292 301 302 299 290 299 148 148 160 240 280 289 287 278 261 273 282 289 292 294 294 291 288 286 285 297 307 313 317 319 319 316 312 310 310 311 312 310 309 308 304 302 299 296 293 291 289 287 285 284 283 281 280 279 279 278 278 278 277 276
27 10 6 2 1 359 358 353 347 341 336 328 319 301 229 182 188 231 249 238 229 234 257 272 279 285 290 291 287 280 273 268 228 192 178 220 275 285 285 283 281 288 290 291 288 286 286 285 286 288 298 305 312 318 324 330 334 335 336 331 329 326 323 318 315 311 307 304 300 298 295 293 290 288 286 284 283 281 281 280 280 279 279 279 278 277
10 8 9 10 10 8 3 355 345 338 333 326 320 315 309 265 212 243 251 243 233 237 253 262 270 276 279 278 275 273 276 273 247 200 168 166 252 265 271 278 277 281 288 293 289 284 283 282 286 293 302 297 295 304 319 331 337 338 336 332 327 324 320 317 314 310 307 304 301 298 296 293 291 289 287 285 284 283 282 282 282 281 281 280 278 278
17 22 28 26 23 17 8 356 342 331 324 319 315 314 321 308 202 227 238 223 208 236 256 259 261 265 269 276 282 285 282 278 256 189 147 134 222 255 263 274 271 270 289 301 302 300 296 287 286 288 290 290 293 301 312 330 335 335 331 327 324 321 318 316 313 310 307 304 301 299 296 294 293 291 290 288 287 286 285 285 284 283 282 281 279 278
9 14 17 15 13 8 359 343 328 320 315 314 312 312 322 222 192 208 215 186 178 206 242 253 256 259 265 280 288 288 279 270 247 177 137 139 214 256 261 270 263 263 300 317 317 314 311 301 290 280 279 298 307 316 321 328 330 328 324 322 320 317 314 312 310 308 306 303 301 299 298 296 295 294 293 292 291 289 288 287 286 284 282 279 277 276
347 349 341 338 338 338 334 320 313 312 312 313 313 314 319 230 194 196 193 179 180 193 216 232 241 245 248 265 274 279 279 268 243 200 155 165 219 248 246 265 261 249 205 338 328 319 314 307 298 288 289 307 315 318 318 316 314 312 309 310 310 308 306 305 305 304 302 301 300 299 298 298 297 297 296 295 293 292 290 288 286 284 280 276 273 270
312 313 310 309 312 315 316 314 312 310 310 310 310 308 301 259 211 196 190 184 182 186 197 213 224 230 231 239 247 257 271 261 218 194 181 196 235 251 232 258 268 262 208 260 303 300 304 300 296 295 299 304 302 300 296 291 289 287 289 292 292 293 296 297 298 299 298 299 299 298 298 298 298 297 297 296 295 293 291 289 287 284 279 275 271 269
309 309 310 312 313 313 312 313 312 310 307 304 300 295 291 276 241 215 201 190 183 180 182 195 212 228 239 245 249 255 264 261 217 199 193 197 236 265 261 276 290 294 286 270 252 253 267 282 292 297 298 292 286 280 277 273 270 269 271 276 279 283 288 290 293 294 293 294 295 296 297 297 297 297 296 296 295 293 292 290 287 284 279 276 271 269
319 317 317 320 320 318 315 314 312 309 305 300 296 294 294 288 268 236 204 195 190 186 180 186 198 217 244 257 263 265 267 272 278 275 247 213 244 279 293 295 298 300 301 289 275 266 266 277 288 296 299 294 286 274 267 265 265 264 261 262 267 275 281 285 286 286 286 289 290 292 293 294 294 294 294 294 293 292 291 289 286 283 279 275 271 267
318 313 313 319 320 319 317 316 314 310 306 299 296 297 301 302 295 268 219 213 209 201 190 194 198 204 221 247 268 276 277 283 317 334 342 333 309 297 296 290 292 295 297 290 288 285 283 284 289 293 298 298 295 285 264 256 260 269 271 260 259 264 270 274 277 281 285 286 287 286 285 286 287 288 289 288 288 287 287 286 284 282 279 276 273 270
321 311 306 309 311 312 310 308 309 309 305 297 291 289 295 296 293 285 265 258 258 257 246 237 226 219 213 222 242 262 272 277 303 319 324 316 303 290 285 282 284 288 288 286 286 286 287 288 290 292 294 296 297 296 283 265 264 276 281 269 262 261 263 263 264 268 277 281 281 280 277 277 277 277 278 280 281 282 283 284 283 282 280 278 277 275
317 303 295 295 297 296 296 297 297 296 294 293 293 294 294 286 281 277 273 275 283 296 300 291 281 270 258 235 232 239 251 258 270 280 286 278 266 259 267 274 276 276 274 277 280 284 286 289 291 291 290 289 292 297 300 296 293 289 282 274 267 265 265 261 259 258 263 268 271 272 271 270 269 269 270 275 278 281 282 283 283 282 281 280 279 278
317 299 290 285 280 277 279 280 276 273 270 279 288 294 293 280 267 258 253 247 243 242 257 271 278 280 281 273 259 246 242 245 250 253 254 248 241 241 255 268 270 268 262 265 271 277 281 285 288 290 289 286 287 291 296 301 301 297 289 279 271 265 261 258 255 253 255 261 266 269 269 267 265 264 267 272 275 278 280 280 280 280 280 280 279 278
299 287 280 271 258 244 243 252 256 257 256 265 275 281 282 270 253 239 230 227 231 239 250 264 272 277 278 278 274 270 264 255 248 244 242 235 232 236 249 261 266 266 262 259 261 265 268 273 278 283 288 290 292 293 295 297 298 298 297 292 283 268 254 251 250 250 250 254 262 267 270 268 267 266 267 269 270 271 271 273 272 271 272 274 276 277
266 263 264 257 243 230 228 239 247 254 260 271 280 283 280 271 262 256 251 262 269 269 263 262 267 273 276 277 277 276 274 267 257 249 238 229 226 231 242 252 260 265 265 260 255 254 256 263 269 273 278 284 290 294 295 294 296 299 303 303 300 291 276 265 254 247 242 243 251 259 267 267 265 264 263 262 260 258 258 260 262 262 260 259 264 272
248 252 256 256 250 241 235 241 248 256 268 278 284 285 279 283 295 307 306 297 288 279 272 271 277 285 289 286 278 270 265 262 256 248 237 229 227 229 236 244 250 256 259 257 254 252 252 259 265 269 273 278 283 286 288 289 293 297 301 300 298 296 295 287 276 261 248 245 246 251 260 267 267 265 263 262 257 250 247 250 253 256 257 249 245 249
249 248 247 251 252 253 253 261 266 265 261 259 261 267 277 295 303 299 290 284 280 276 276 274 279 287 293 292 283 272 261 256 250 244 239 232 228 228 231 237 241 244 248 253 254 253 252 256 261 266 270 275 280 284 285 286 289 291 293 293 296 299 298 291 280 257 243 252 251 252 258 267 269 268 267 266 262 253 246 243 247 251 256 250 243 238
248 247 246 248 253 261 270 277 275 268 251 244 252 265 276 278 272 265 265 265 269 273 278 278 281 286 292 291 287 277 263 252 246 241 238 232 228 226 228 231 234 235 238 248 254 256 256 255 258 262 266 271 275 278 282 285 287 287 287 289 294 298 298 295 291 280 262 265 263 262 264 270 272 274 273 274 271 264 254 253 253 254 256 256 251 242
251 256 258 259 261 263 264 262 258 250 238 249 260 267 269 263 263 266 269 265 271 278 284 285 288 288 285 285 283 278 263 255 247 243 241 236 230 225 225 226 228 229 227 236 248 257 262 260 259 260 263 265 268 272 275 279 282 283 282 283 282 281 280 288 295 297 290 283 277 270 267 273 278 280 281 280 278 274 265 257 252 251 252 251 249 246
266 272 275 267 263 261 262 258 257 255 247 250 257 264 269 265 263 264 263 266 275 279 279 283 286 286 282 281 282 280 272 263 254 249 248 246 243 238 229 224 223 224 223 228 236 245 255 260 263 263 263 262 262 264 268 273 277 279 279 278 277 274 272 279 285 289 289 288 285 279 269 270 275 280 281 279 276 273 269 265 259 254 249 246 244 244
275 278 277 271 266 264 267 269 270 269 265 266 269 272 275 273 268 258 256 260 269 273 272 270 272 277 281 285 288 290 289 281 269 257 252 253 250 244 236 229 226 225 225 229 233 238 243 252 259 265 268 265 263 261 262 267 271 275 277 277 277 276 275 276 276 278 280 282 282 279 273 270 273 278 280 280 278 275 271 266 262 257 252 246 243 241
264 271 274 273 269 266 267 272 275 276 277 276 278 280 284 278 270 265 263 261 264 269 274 270 267 270 277 283 288 291 292 289 283 272 259 255 252 249 245 241 236 233 232 234 236 238 241 244 248 254 261 265 267 266 264 263 265 268 272 274 275 275 274 274 273 272 272 274 275 276 277 278 278 278 278 280 279 277 273 268 263 258 254 250 246 244
267 278 284 284 282 279 273 273 273 277 278 279 282 284 286 281 281 282 278 277 281 286 291 287 281 277 276 277 277 279 282 285 285 281 271 262 254 248 245 245 244 243 242 243 243 244 244 242 241 242 246 253 261 266 267 265 263 263 267 270 271 271 272 272 271 270 269 268 266 266 268 271 273 276 279 281 282 280 279 275 271 265 260 256 253 250
276 282 285 286 283 279 270 269 269 271 275 280 283 284 283 285 292 296 293 292 289 288 286 281 278 277 276 274 273 274 276 278 279 279 275 267 259 253 247 245 246 249 252 251 250 250 249 246 240 236 234 239 248 257 263 263 262 261 262 264 264 266 267 269 269 268 267 265 262 258 255 259 263 268 275 279 281 282 282 280 276 270 264 259 256 253
268 265 266 267 267 265 263 263 265 268 272 279 282 284 282 286 289 289 285 280 275 270 266 266 267 270 272 273 275 275 276 277 278 278 275 269 264 261 258 253 254 258 262 260 256 253 253 251 242 235 229 228 232 241 253 257 259 259 259 257 257 259 263 266 267 266 265 266 264 261 257 259 262 264 267 273 277 280 282 280 278 273 268 262 256 253
269 266 263 258 258 259 259 260 261 263 264 270 275 278 280 279 277 274 272 270 269 267 264 261 261 263 267 271 274 275 275 277 277 278 276 273 270 269 266 263 263 265 269 270 269 266 264 267 264 251 235 227 224 226 236 244 251 256 257 254 253 253 257 263 265 266 266 267 267 266 263 264 263 262 261 266 272 277 280 280 279 277 273 269 265 260